Weather Roundup
Issued by NWS Springfield, MO

Home | Current Version | Previous Version | Text Only | Print | Product List | Glossary On
Versions: 1 2 3 4 5 6 7 8 9 10 11 12 13 14 15 16 17 18 19 20 21 22 23 24 25 26 27 28 29 30 31 32 33 34 35 36 37 38 39 40 41 42 43 44 45 46 47 48 49 50
000
NZUS99 KSGF 071859
HRRSGF

HOURLY WEATHER
NATIONAL WEATHER SERVICE SPRINGFIELD MO
200 PM CDT TUE JUL 07 2015

......SGF CWA......

CITY           SKY/WX    TMP DP  RH WIND       PRES   REMARKS
SPRINGFIELD    CLOUDY    70  69  97 NW9       30.00S FOG
JOPLIN         CLOUDY    65  63  93 N8        30.03S FOG
WEST PLAINS    CLOUDY    72  69  90 SW7       30.01F
ROLLA          CLOUDY    68  66  93 N10       29.99S
OSAGE BEACH    CLOUDY    66  63  88 N7        30.01S
BRANSON        LGT RAIN  72  70  94 SW3       30.02F

......SURROUNDING SGF CWA......

CITY           SKY/WX    TMP DP  RH WIND       PRES   REMARKS
CHANUTE        CLOUDY    67  64  90 NE10      30.05S FOG
PARSONS        CLOUDY    67  63  87 NE8       30.05R
COFFEYVILLE    CLOUDY    67  63  87 N12       30.03S FOG
EMPORIA        CLOUDY    71  57  61 N13       30.07F
SILOAM SPRINGS CLOUDY    72  66  83 S3        30.03S
HARRISON AR    RAIN      72  71  97 SW3       30.02F FOG
NEAR YELLVILLE CLOUDY    73  70  88 CALM      29.98F

......KANSAS AND MISSOURI......

CITY           SKY/WX    TMP DP  RH WIND       PRES   REMARKS
KANSAS CTY INT CLOUDY    70  61  73 N14       30.07F
DOWNTOWN KC    PTSUNNY   74  61  63 N14       30.05F
COLUMBIA       CLOUDY    67  64  90 N10       30.03S FOG
SEDALIA        CLOUDY    70  61  73 NE12      30.04S HAZE
ST JOSEPH      PTSUNNY   72  59  63 N12       30.08F
ST LOUIS       CLOUDY    70  65  84 N8        30.00S HAZE
SPIRIT OF STL  CLOUDY    69  67  93 N10       29.99S FOG
KIRKSVILLE     PTSUNNY   73  58  59 N13       30.06F HAZE
WICHITA        CLOUDY    70  57  63 N14       30.08F
TOPEKA         CLOUDY    69  58  67 N12       30.08F
OLATHE         CLOUDY    72  59  63 N12       30.05F HAZE

......TENNESSEE......

CITY           SKY/WX    TMP DP  RH WIND       PRES   REMARKS
MEMPHIS        PTSUNNY   90  74  59 SW12G20   30.03F HX  99
NASHVILLE      CLOUDY    88  71  57 SW10      30.05F HX  94

......ARKANSAS.......

CITY           SKY/WX    TMP DP  RH WIND       PRES   REMARKS
FAYETTEVILLE   HVY RAIN  71  71 100 S9        30.03S VSB 1
FT SMITH       CLOUDY    88  71  57 S15G25    29.95F HX  94
LITTLE ROCK    PTSUNNY   91  73  55 S10       29.99F HX  99

......OKLAHOMA.......

CITY           SKY/WX    TMP DP  RH WIND       PRES   REMARKS
TULSA          CLOUDY    71  68  90 N12       29.99R FOG
PONCA CITY     CLOUDY    67  61  81 NE17      30.04S HAZE
MCALESTER      PTSUNNY   86  73  65 SW14G23   29.95F HX  93
OKLAHOMA CITY  LGT RAIN  71  70  96 N13       30.00S FOG

......IOWA............

CITY           SKY/WX    TMP DP  RH WIND       PRES   REMARKS
DES MOINES     MOSUNNY   71  50  47 VRB6      30.10S
QUAD CITIES    MOSUNNY   72  55  55 N12       30.03S HAZE

......ILLINOIS........

CITY           SKY/WX    TMP DP  RH WIND       PRES   REMARKS
QUINCY         CLOUDY    70  60  70 NE14      30.04S HAZE
CHICAGO        MOSUNNY   67  46  47 NE20G28   30.03R



USA.gov is the U.S. government's official web portal to all federal, state and local government web resources and services.